Location: Unspecified
(0.0000°N, 0.0000°E)
Time: 11:05:16
(UTC+00:00)

A-11 Canister half - Pass Details

Date: 10 August 2021
Orbit: 1515 x 1685 km, 47.2° (Epoch: 27 September)

Event Time Altitude Azimuth Distance (km) Brightness Sun altitude
Rises 09:02:54 0° 187° (S) 4,667 11.3 42.4°
Reaches altitude 10° 09:08:06 10° 163° (SSE) 3,674 11.1 43.6°
Maximum altitude 09:12:27 14° 134° (SE) 3,361 11.2 44.6°
Drops below altitude 10° 09:16:46 10° 106° (ESE) 3,679 11.7 45.6°
Sets 09:21:55 0° 82° (E) 4,677 12.2 46.8°
